Time,TemperatureF,DewpointF,PressureIn,WindDirection,WindDirectionDegrees,WindSpeedMPH,WindSpeedGustMPH,Humidity,HourlyPrecipIn,Conditions,Clouds,dailyrainin,SoftwareType,DateUTC
2015-08-04 00:03:00,67.0,58.0,29.98,NNW,344,0.0,0.0,73,-99.99,,,-99.99,,2015-08-04 05:03:00,
2015-08-04 00:13:00,68.0,58.0,29.98,NNW,344,0.0,0.0,70,-99.99,,,-99.99,,2015-08-04 05:13:00,
2015-08-04 00:24:00,68.0,57.0,29.98,NNW,344,0.0,0.0,68,-99.99,,,-99.99,,2015-08-04 05:24:00,
2015-08-04 00:33:00,68.0,57.0,29.98,NNW,344,0.0,0.0,67,-99.99,,,-99.99,,2015-08-04 05:33:00,
2015-08-04 00:44:00,68.0,57.0,29.98,NNW,344,0.0,0.0,69,-99.99,,,-99.99,,2015-08-04 05:44:00,
2015-08-04 00:54:00,68.0,57.0,29.98,NNW,344,0.0,0.0,67,-99.99,,,-99.99,,2015-08-04 05:54:00,
2015-08-04 01:03:00,69.0,57.0,29.98,NNW,344,0.0,0.0,66,-99.99,,,-99.99,,2015-08-04 06:03:00,
2015-08-04 01:33:00,69.0,57.0,29.98,NNW,344,-999.9,-999.0,66,-99.99,,,-99.99,,2015-08-04 06:33:00,
2015-08-04 01:44:00,68.0,57.0,29.97,NNW,344,0.0,0.0,67,-99.99,,,-99.99,,2015-08-04 06:44:00,
2015-08-04 01:54:00,68.0,57.0,29.97,NNW,344,0.0,0.0,67,-99.99,,,-99.99,,2015-08-04 06:54:00,
2015-08-04 02:33:00,67.0,57.0,29.97,NNW,344,0.0,0.0,71,-99.99,,,-99.99,,2015-08-04 07:33:00,
2015-08-04 02:44:00,67.0,57.0,29.97,NNW,344,0.0,0.0,71,-99.99,,,-99.99,,2015-08-04 07:44:00,
2015-08-04 02:53:00,67.0,57.0,29.97,NNW,344,0.0,0.0,71,-99.99,,,-99.99,,2015-08-04 07:53:00,
2015-08-04 03:03:00,67.0,57.0,29.97,NNW,344,0.0,0.0,71,-99.99,,,-99.99,,2015-08-04 08:03:00,
2015-08-04 03:13:00,67.0,57.0,29.97,NNW,344,0.0,0.0,71,-99.99,,,-99.99,,2015-08-04 08:13:00,
2015-08-04 03:23:00,66.0,57.0,29.96,NNW,344,0.0,0.0,72,-99.99,,,-99.99,,2015-08-04 08:23:00,
2015-08-04 03:34:00,66.0,57.0,29.97,NNW,344,0.0,0.0,74,-99.99,,,-99.99,,2015-08-04 08:34:00,
2015-08-04 03:45:00,66.0,57.0,29.96,NNW,344,0.0,0.0,73,-99.99,,,-99.99,,2015-08-04 08:45:00,
2015-08-04 04:03:00,66.0,58.0,29.97,NNW,344,0.0,0.0,76,-99.99,,,-99.99,,2015-08-04 09:03:00,
2015-08-04 04:13:00,66.0,57.0,29.96,NNW,344,0.0,0.0,74,-99.99,,,-99.99,,2015-08-04 09:13:00,
2015-08-04 04:23:00,66.0,58.0,29.96,NNW,344,0.0,0.0,76,-99.99,,,-99.99,,2015-08-04 09:23:00,
2015-08-04 04:33:00,66.0,58.0,29.96,NNW,344,0.0,0.0,76,-99.99,,,-99.99,,2015-08-04 09:33:00,
2015-08-04 04:43:00,65.0,57.0,29.98,NNW,344,0.0,0.0,76,-99.99,,,-99.99,,2015-08-04 09:43:00,
2015-08-04 04:53:00,65.0,58.0,29.98,NNW,344,0.0,0.0,78,-99.99,,,-99.99,,2015-08-04 09:53:00,
2015-08-04 05:03:00,65.0,58.0,29.98,NNW,344,0.0,0.0,78,-99.99,,,-99.99,,2015-08-04 10:03:00,
2015-08-04 05:13:00,64.0,57.0,29.98,NNW,344,0.0,0.0,77,-99.99,,,-99.99,,2015-08-04 10:13:00,
2015-08-04 05:24:00,65.0,57.0,29.98,NNW,344,0.0,0.0,75,-99.99,,,-99.99,,2015-08-04 10:24:00,
2015-08-04 05:33:00,65.0,58.0,29.98,NNW,344,0.0,0.0,77,-99.99,,,-99.99,,2015-08-04 10:33:00,
2015-08-04 05:43:00,65.0,58.0,29.98,NNW,344,0.0,0.0,77,-99.99,,,-99.99,,2015-08-04 10:43:00,
2015-08-04 05:53:00,65.0,58.0,29.99,NNW,344,0.0,0.0,79,-99.99,,,-99.99,,2015-08-04 10:53:00,
2015-08-04 06:13:00,64.0,58.0,30.00,NNW,344,3.0,4.0,82,-99.99,,,-99.99,,2015-08-04 11:13:00,
2015-08-04 06:24:00,64.0,59.0,30.00,NNW,344,3.0,4.0,83,-99.99,,,-99.99,,2015-08-04 11:24:00,
2015-08-04 06:33:00,65.0,60.0,30.00,NNW,344,4.0,-999.0,85,-99.99,,,-99.99,,2015-08-04 11:33:00,
2015-08-04 06:44:00,65.0,60.0,30.00,NNW,344,4.0,5.0,85,-99.99,,,-99.99,,2015-08-04 11:44:00,
2015-08-04 06:53:00,65.0,60.0,30.00,NNW,344,4.0,5.0,85,-99.99,,,-99.99,,2015-08-04 11:53:00,
2015-08-04 07:13:00,64.0,60.0,30.00,NNW,344,4.0,5.0,87,-99.99,,,-99.99,,2015-08-04 12:13:00,
2015-08-04 07:23:00,64.0,60.0,30.00,NNW,344,4.0,5.0,87,-99.99,,,-99.99,,2015-08-04 12:23:00,
2015-08-04 07:36:00,64.0,60.0,30.00,NNW,344,4.0,5.0,87,-99.99,,,-99.99,,2015-08-04 12:36:00,
2015-08-04 07:44:00,64.0,60.0,30.00,NNW,344,4.0,5.0,87,-99.99,,,-99.99,,2015-08-04 12:44:00,
2015-08-04 07:53:00,64.0,60.0,30.00,NNW,344,4.0,5.0,87,-99.99,,,-99.99,,2015-08-04 12:53:00,
2015-08-04 08:04:00,65.0,61.0,30.00,NNW,343,3.0,4.0,87,-99.99,,,-99.99,,2015-08-04 13:04:00,
2015-08-04 08:13:00,66.0,62.0,30.01,NNW,343,2.0,3.0,86,-99.99,,,-99.99,,2015-08-04 13:13:00,
2015-08-04 08:24:00,66.0,62.0,30.01,NNW,343,2.0,3.0,86,-99.99,,,-99.99,,2015-08-04 13:24:00,
2015-08-04 08:34:00,67.0,62.0,30.01,NNW,343,0.0,2.0,84,-99.99,,,-99.99,,2015-08-04 13:34:00,
2015-08-04 08:43:00,67.0,62.0,30.01,NNW,343,0.0,2.0,84,-99.99,,,-99.99,,2015-08-04 13:43:00,
2015-08-04 08:53:00,67.0,62.0,30.01,NNW,343,0.0,2.0,84,-99.99,,,-99.99,,2015-08-04 13:53:00,
2015-08-04 09:03:00,70.0,62.0,30.02,NNW,343,0.0,0.0,75,-99.99,,,-99.99,,2015-08-04 14:03:00,
2015-08-04 09:13:00,70.0,62.0,30.03,NNW,343,0.0,0.0,77,-99.99,,,-99.99,,2015-08-04 14:13:00,
2015-08-04 09:23:00,71.0,62.0,30.02,NNW,343,0.0,0.0,74,-99.99,,,-99.99,,2015-08-04 14:23:00,
2015-08-04 09:33:00,71.0,62.0,30.02,NNW,343,0.0,0.0,74,-99.99,,,-99.99,,2015-08-04 14:33:00,
2015-08-04 09:43:00,71.0,62.0,30.02,NNW,343,0.0,0.0,74,-99.99,,,-99.99,,2015-08-04 14:43:00,
2015-08-04 09:53:00,71.0,62.0,30.02,NNW,343,0.0,0.0,74,-99.99,,,-99.99,,2015-08-04 14:53:00,
2015-08-04 10:03:00,73.0,64.0,30.03,NNW,342,0.0,0.0,74,-99.99,,,-99.99,,2015-08-04 15:03:00,
2015-08-04 10:13:00,73.0,64.0,30.03,NNW,342,0.0,0.0,74,-99.99,,,-99.99,,2015-08-04 15:13:00,
2015-08-04 10:27:00,74.0,64.0,30.03,NNW,342,0.0,0.0,71,-99.99,,,-99.99,,2015-08-04 15:27:00,